Погода в Ильинке

Россия / Ростовская область     48°32′28″N   41°05′12″E
темп.,
°C
ветер,
м/с
пор.,
м/с
влажн.,
%
обл.,
%
осадки,
мм/ч
давл.,
гПа
погр.,
м
14 августа, вс
вс1400:00+28всв10172935 0.0 1013777
03:00+27всв8162460 0.0 1012719
06:00+25всв7162564 0.0 1013528
09:00+31в9131898 0.0 10121192
12:00+35в9111683 0.0 10112461
15:00+37в910145 0.0 10093670
18:00+36всв8111531 0.0 10083121
21:00+31всв10161897 0.0 1009934
15 августа, пн
пн1500:00+28в8182141 0.0 1010721
03:00+27в7152364 0.0 1010504
06:00+25в6122738 0.0 1010310
09:00+33в8121823 0.0 10101231
12:00+38вюв10121313 0.0 10093574
15:00+38вюв10121350 0.0 10083731
18:00+37в91114100 0.0 10083419
21:00+33в11172089 0.0 10091206
16 августа, вт
вт1600:00+30в101925100 0.0 1010890
03:00+29в91827100 0.0 1011796
06:00+28вюв81626100 0.0 1011580
09:00+31вюв81223100 0.0 1012787
12:00+35юв81118100 0.0 10112765
15:00+35вюв91118100 0.0 10103196
18:00+33всв91421100 0.0 1009823
21:00+33в81420100 0.0 1009907
17 августа, ср
ср1700:00+29в1119220 0.0 1009728
03:00+27в714260 0.0 1009458
06:00+24в613390 0.0 1010350
09:00+30вюв672649 0.1 1010709
12:00+36ююв34216 0.0 10081739
15:00+38юв331953 0.1 10072790
18:00+37вюв3320100 0.0 10062283
21:00+30с2234100 0.4 100616
18 августа, чт
чт1800:00+26с334353 0.3 100622
03:00+24зюз2250100 1.1 100724
06:00+26ссв3646100 0.1 100581
09:00+29в3336100 0.1 1007536
12:00+35юв3425100 0.0 10061872
15:00+37ю232178 0.0 10052779
18:00+28зюз81150100 0.2 1006457
21:00+24вюв21061100 1.4 1008320